Regional Weather Roundup
Issued by NWS

Home | Current Version | Previous Version | Graphics & Text | Print | Product List | Glossary Off
Versions: 1 2 3 4 5 6 7 8 9 10 11 12 13 14 15 16 17 18 19 20 21 22 23 24 25 26 27 28 29 30 31 32 33 34 35 36 37 38 39 40 41 42 43 44 45 46 47 48 49 50

000
ASUS43 KMKX 182211
RWRWI

WISCONSIN REGIONAL WEATHER ROUNDUP
NATIONAL WEATHER SERVICE MILWAUKEE/SULLIVAN WI
400 PM CST SAT NOV 18 2017

NOTE: "FAIR" INDICATES FEW OR NO CLOUDS BELOW 12,000 FEET WITH NO
SIGNIFICANT WEATHER AND/OR OBSTRUCTIONS TO VISIBILITY.

WIZ001-002-006>008-014>016-023>028-182300-
NORTHWEST WISCONSIN

CITY           SKY/WX    TMP DP  RH WIND       PRES   REMARKS
SUPERIOR ARPT  CLOUDY    28  16  63 NW14G21   29.88R WCI  16
ASHLAND        CLOUDY    29  19  66 W15       29.82R WCI  18
HAYWARD        CLOUDY    29  18  63 VRB5      29.81R WCI  24
SIREN          PTCLDY    29  17  60 N12G17    29.86R WCI  19
CUMBERLAND     CLOUDY    30  18  59 NW17G24   29.81R WCI  18
RICE LAKE      CLOUDY    31  20  63 W9        29.83R WCI  23
CHETEK         CLOUDY    32  21  63 NW7G18    29.81R WCI  25
LADYSMITH      CLOUDY    32  22  67 NW17      29.79R WCI  21
EAU CLAIRE     MOCLDY    34  21  59 NW10G20   29.79R WCI  26
MENOMONIE      PTCLDY    34  22  61 W16G24    29.82R WCI  23
NEW RICHMOND   MOCLDY    31  18  58 NW17G25   29.86R WCI  20
OSCEOLA        CLEAR     32  19  58 NW10G16   29.90R WCI  23
$$

WIZ003>005-009-010-017-018-182300-
NORTH CENTRAL WISCONSIN

CITY           SKY/WX    TMP DP  RH WIND       PRES   REMARKS
MANITOWISH WTR CLOUDY    27  27 100 NW9       29.72R WCI  18
ARBOR VITAE    MOCLDY    32  29  90 NW9G20    29.71R WCI  24
WOODRUFF       MOCLDY    32  29  90 NW9G20    29.71R WCI  24
RHINELANDER    CLOUDY    30  27  88 N10G20    29.69R WCI  21
EAGLE RIVER    CLOUDY    29  27  92 NW9G17    29.68R WCI  21
LAND O LAKES   CLOUDY    29  27  92 NW9       29.71R WCI  21
PHILLIPS       CLOUDY    29  25  83 NW9       29.73R WCI  21
TOMAHAWK       CLOUDY    30  26  84 NW9       29.71R WCI  22
MEDFORD        CLOUDY    31  24  74 NW13G20   29.71R WCI  22
MERRILL        CLOUDY    32  27  80 N14G22    29.70R WCI  22
$$

WIZ029-030-035-036-043>047-182300-
CENTRAL WISCONSIN

CITY           SKY/WX    TMP DP  RH WIND       PRES   REMARKS
WAUSAU         CLOUDY    34  26  72 NW15G23   29.68R WCI  24
MOSINEE        CLOUDY    34  28  80 N12G17    29.70R WCI  25
MARSHFIELD     PTCLDY    34  25  69 NW15G23   29.69R WCI  24
STEVENS POINT  CLOUDY    35  26  71 NW10G20   29.69R WCI  27
WAUPACA        CLOUDY    39  30  68 NW12      29.66S WCI  32
WAUTOMA        MOCLDY    37  28  70 NW8       29.69R WCI  31
WISC RAPIDS    MOCLDY    37  27  67 N10G22    29.71R WCI  30
CAMP DOUGLAS   MOCLDY   N/A N/A N/A NW14G24   29.73R
$$

WIZ011>013-019>022-031-037>040-048>050-182300-
NORTHEAST WISCONSIN

CITY           SKY/WX    TMP DP  RH WIND       PRES   REMARKS
ANTIGO         CLOUDY    32  28  83 NW21G26   29.66R WCI  20
SHAWANO        CLOUDY    38  29  68 NW12G21   29.66R WCI  31
OCONTO         CLOUDY    37  29  72 N9G18     29.64R WCI  30
STURGEON BAY   CLOUDY    37  30  75 N21G28    29.61R WCI  26
GREEN BAY      CLOUDY    38  32  79 NW16G22   29.64R WCI  29
MANITOWOC      CLOUDY    38  30  73 NW20G31   29.61R WCI  28
APPLETON       CLOUDY    37  27  65 N16G25    29.62R WCI  28
CLINTONVILLE   CLOUDY    37  27  65 N13G20    29.66R WCI  29
OSHKOSH        CLOUDY    38  30  73 NW17G23   29.64R WCI  28
$$

WIZ032>034-041-042-053>061-182300-
SOUTHWEST WISCONSIN

CITY           SKY/WX    TMP DP  RH WIND       PRES   REMARKS
LA CROSSE      CLEAR     41  28  60 NW15      29.76R
SPARTA         PTCLDY    39  29  67 NW10      29.75R WCI  32
VIROQUA        CLEAR     38  32  77 NW18G26   29.72R WCI  29
BOSCOBEL       PTCLDY    44  30  57 VRB6      29.74R
PRAIRIE DU CHI CLEAR     42  27  54 NW20G25   29.75R
PLATTEVILLE    CLEAR     40  33  78 NW15      29.72R WCI  31
$$

WIZ056-057-062-063-064-067-068-182300-
SOUTH CENTRAL WISCONSIN

CITY           SKY/WX    TMP DP  RH WIND       PRES   REMARKS
REEDSBURG      CLEAR     38  30  73 NW12      29.70R WCI  30
BARABOO/DELLS  PTCLDY    38  29  69 NW7       29.69R WCI  32
LONE ROCK      CLEAR     40  32  73 NW9G18    29.72R WCI  34
MINERAL POINT  CLEAR     39  34  81 NW9       29.70R WCI  33
MADISON        MOCLDY    39  31  72 N15G25    29.67R WCI  31
MIDDLETON      MOCLDY    39  32  75 NW16G23   29.68R WCI  30
WATERTOWN      CLOUDY    37  34  86 NW15      29.64R WCI  28
MONROE         CLOUDY    36  32  87 NW10G23   29.66R WCI  28
JANESVILLE     CLOUDY    39  36  87 NW15G23   29.64R WCI  31
$$

WIZ051-052-058>065-066-070>072-182300-
SOUTHEAST WISCONSIN

CITY           SKY/WX    TMP DP  RH WIND       PRES   REMARKS
MILWAUKEE      CLOUDY    40  33  76 N18G25    29.60R WCI  31
WAUKESHA       CLOUDY    36  30  80 NW17G23   29.61R WCI  25
MILWAUKEE/TIMM CLOUDY    37  30  75 N14G26    29.61R WCI  29
RACINE         CLOUDY    39  33  79 N17G28    29.60R WCI  30
BURLINGTON     CLOUDY    40  37  89 NW17G28   29.62R WCI  31
KENOSHA        CLOUDY    39  32  76 N17G29    29.59R WCI  30
FOND DU LAC    CLOUDY    38  30  73 N14       29.64R WCI  30
SHEBOYGAN      CLOUDY    38  32  79 NW18G31   29.61R WCI  28
WEST BEND      CLOUDY    36  32  87 NW18G26   29.61R WCI  25
JUNEAU         CLOUDY    36  31  81 NW13G22   29.65R WCI  28
$$

LSZ147-162-182300-
LAKE SUPERIOR

STATION/POSITION TIME  TEMP    WIND        PRES    WAVE
                       AIR SEA DIR/SP/G            HT/PER
                 (UTC) (F)     (DEG/KT/KT) (MB)    (FT/S)
DEVILS ISLAND    2200   29     310/ 18/ 20 1010.5R
SAXON HARBOR     2130   32     290/  7/ 13 1008.5R
$$

LMZ867-665-643>646-182300-
LAKE MICHIGAN

STATION/POSITION TIME  TEMP    WIND        PRES    WAVE
                       AIR SEA DIR/SP/G            HT/PER
                 (UTC) (F)     (DEG/KT/KT) (MB)    (FT/S)
N MID LAKE BUOY  2150   41 48  340/ 23/ 27 1001.4R   4/ 4
NORTHPORT PIER   2203   40     340/ 25     1002.4
SHEBOYGAN LAKESH 2200   39     330/ 20/ 24 1002.6R
PORT WASHINGTON  2140   39     320/  9/ 16 1003.0R
MILWAUKEE LAKESH 2150   40     330/ 16/ 19   N/A
S MID LAKE BUOY  2150   42 49  360/ 29/ 35  999.5R  10/ 8
KENOSHA   LAKESH 2200   40     340/ 22/ 26 1002.0
$$

TC  - TEMPERATURE IN CELSIUS
VSB - VISIBILITY IN STATUTE MILES
WCI - WIND CHILL INDEX
HX  - HEAT INDEX





USA.gov is the U.S. government's official web portal to all federal, state and local government web resources and services.